Weather History for Paducah, KY

Change the Weather History Date:

Monday, June 17, 2013

  Actual Average Record
Temperature  
Mean Temperature 78 °F 76 °F  
Max Temperature 88 °F 87 °F 98 °F (1946)
Min Temperature 67 °F 66 °F 51 °F (1961)
Degree Days  
Heating Degree Days 0 0  
Month to date heating degree days 0 0  
Since 1 June heating degree days 0 0  
Since 1 July heating degree days 4210 4128  
Cooling Degree Days 13 11  
Month to date cooling degree days 144 155  
Year to date cooling degree days 322 327  
Since 1 June cooling degree days 144 155  
Growing Degree Days 27 (Base 50)    
Moisture  
Dew Point 69 °F    
Average Humidity 78    
Maximum Humidity 100    
Minimum Humidity 55    
Precipitation  
Precipitation 1.13 in 0.14 in 1.23 in (2006)
Month to date precipitation 7.25 2.27  
Year to date precipitation 32.72 23.49  
Snow  
Snow 0.00 in 0.00 in 0.00 in (2002)
Month to date snowfall 0.0 0.0  
Since 1 June snowfall 0.0 0.0  
Since 1 July snowfall 6.8 9.1  
Snow Depth 0.00 in    
Sea Level Pressure  
Sea Level Pressure 29.92 in    
Wind  
Wind Speed 5 mph (SE)    
Max Wind Speed 21 mph    
Max Gust Speed 34 mph    
Visibility 6 miles    
Events Fog , Rain , Thunderstorm    
T = Trace of Precipitation, MM = Missing Value Source: NWS Daily Summary

Daily Weather History Graph

Daily Weather History Graph

Search for Another Location

Airport:

Trip Planner

Search our weather history database for the weather conditions in past years. The results will help you decide how hot, cold, wet, or windy it might be!

Date:

Astronomy

Jun. 17, 2013 Rise Set
Actual Time 5:34 AM CDT 8:17 PM CDT
Civil Twilight 5:04 AM CDT 8:48 PM CDT
Nautical Twilight 4:25 AM CDT 9:26 PM CDT
Astronomical Twilight 3:42 AM CDT 10:10 PM CDT
Moon 2:02 PM CDT (6/17) 1:02 AM CDT (6/17)
Length of Visible Light 15h 44m
Length of Day
14h 42m
First Quarter, 60% of the Moon is Illuminated
Jun 17
First Quarter
Jun 23
Full
Jun 29
Last Quarter
Jul 8
New
Jul 15
First Quarter

Hourly Weather History & Observations

Time (CDT) Temp. Heat Index Dew Point Humidity Pressure Visibility Wind Dir Wind Speed Gust Speed Precip Events Conditions
12:53 AM 72.0 °F - 69.1 °F 91% 29.94 in 6.0 mi South 3.5 mph - N/A   Clear
1:53 AM 75.0 °F - 69.1 °F 82% 29.92 in 7.0 mi South 4.6 mph - N/A   Clear
2:53 AM 73.9 °F - 69.1 °F 85% 29.91 in 7.0 mi Calm Calm - N/A   Clear
3:53 AM 72.0 °F - 69.1 °F 91% 29.93 in 7.0 mi Calm Calm - N/A   Clear
4:53 AM 72.0 °F - 69.1 °F 91% 29.92 in 6.0 mi Calm Calm - N/A   Scattered Clouds
5:53 AM 73.0 °F - 70.0 °F 90% 29.93 in 5.0 mi Calm Calm - N/A   Mostly Cloudy
6:53 AM 73.9 °F - 71.1 °F 91% 29.94 in 4.0 mi Variable 3.5 mph - N/A   Clear
7:53 AM 75.9 °F - 71.1 °F 85% 29.93 in 5.0 mi Calm Calm - N/A   Haze
8:53 AM 81.0 °F 85.2 °F 72.0 °F 74% 29.92 in 8.0 mi SSW 5.8 mph - N/A   Clear
9:53 AM 84.0 °F 89.0 °F 71.1 °F 65% 29.91 in 9.0 mi North - - N/A   Clear
10:53 AM 87.1 °F 92.0 °F 70.0 °F 57% 29.92 in 10.0 mi South 5.8 mph - N/A   Clear
11:53 AM 88.0 °F 92.9 °F 70.0 °F 55% 29.91 in 10.0 mi SSE 4.6 mph - N/A   Partly Cloudy
12:53 PM 84.9 °F 89.4 °F 70.0 °F 61% 29.88 in 9.0 mi East 6.9 mph - N/A   Mostly Cloudy
1:36 PM 78.8 °F - 66.2 °F 65% 29.89 in 9.0 mi SSE 12.7 mph 23.0 mph 0.00 in Thunderstorm Thunderstorm
1:53 PM 73.0 °F - 66.9 °F 81% 29.91 in 2.5 mi South 15.0 mph 23.0 mph 0.06 in Thunderstorm Unknown
2:01 PM 71.6 °F - 69.8 °F 94% 29.94 in 0.8 mi SSW 20.7 mph 34.5 mph 0.04 in Thunderstorm Overcast
2:06 PM 69.8 °F - 68.0 °F 94% 29.93 in 0.2 mi SSW 13.8 mph 33.4 mph 0.31 in Fog , Thunderstorm Unknown
2:12 PM 69.8 °F - 66.2 °F 88% 29.93 in 0.5 mi SSW 8.1 mph 27.6 mph 0.53 in Fog , Thunderstorm Unknown
2:19 PM 69.8 °F - 66.2 °F 88% 29.95 in 1.0 mi South 4.6 mph - 0.61 in Thunderstorm Overcast
2:44 PM 69.8 °F - 68.0 °F 94% 29.94 in 2.0 mi ESE 8.1 mph - 0.77 in Rain Rain
2:53 PM 70.0 °F - 66.9 °F 90% 29.92 in 4.0 mi ESE 5.8 mph - 0.78 in Rain Light Rain
3:53 PM 70.0 °F - 68.0 °F 93% 29.91 in 1.8 mi Calm Calm - 0.08 in Rain Rain
4:06 PM 69.8 °F - 69.8 °F 100% 29.91 in 3.0 mi Calm Calm - 0.03 in Rain Light Rain
4:53 PM 72.0 °F - 70.0 °F 93% 29.90 in 7.0 mi Variable 6.9 mph - 0.04 in Rain Light Rain
5:07 PM 71.6 °F - 69.8 °F 94% 29.91 in 7.0 mi Calm Calm - 0.00 in Rain Light Rain
5:19 PM 71.6 °F - 69.8 °F 94% 29.91 in 7.0 mi Calm Calm - 0.00 in Rain Light Rain
5:49 PM 71.6 °F - 69.8 °F 94% 29.91 in 8.0 mi Calm Calm - 0.00 in   Overcast
5:53 PM 71.1 °F - 69.1 °F 93% 29.90 in 8.0 mi Calm Calm - 0.00 in   Overcast
6:14 PM 71.6 °F - 69.8 °F 94% 29.90 in 6.0 mi Variable 4.6 mph - N/A   Overcast
6:32 PM 71.6 °F - 69.8 °F 94% 29.91 in 7.0 mi East 4.6 mph - N/A   Overcast
6:45 PM 71.6 °F - 69.8 °F 94% 29.91 in 6.0 mi Calm Calm - N/A   Overcast
6:53 PM 71.1 °F - 69.1 °F 93% 29.90 in 7.0 mi Calm Calm - N/A   Overcast
7:21 PM 71.6 °F - 68.0 °F 88% 29.91 in 8.0 mi North - - N/A   Overcast
7:53 PM 71.1 °F - 69.1 °F 93% 29.91 in 6.0 mi North 6.9 mph - N/A   Overcast
8:07 PM 69.8 °F - 68.0 °F 94% 29.92 in 8.0 mi North 10.4 mph - N/A   Overcast
8:21 PM 69.8 °F - 66.2 °F 88% 29.92 in 10.0 mi NNE 12.7 mph 20.7 mph N/A   Overcast
8:41 PM 69.8 °F - 66.2 °F 88% 29.91 in 10.0 mi NE 8.1 mph 18.4 mph N/A   Overcast
8:53 PM 69.1 °F - 66.9 °F 93% 29.90 in 10.0 mi NE 9.2 mph - N/A   Overcast
9:53 PM 68.0 °F - 66.0 °F 93% 29.91 in 6.0 mi NE 6.9 mph - 0.04 in Rain Rain
10:53 PM 66.9 °F - 66.0 °F 97% 29.91 in 5.0 mi East 6.9 mph - 0.08 in Rain Light Rain
11:53 PM 66.9 °F - 66.0 °F 97% 29.90 in 8.0 mi East 11.5 mph - 0.04 in Rain Light Rain